GFSWCAN_sfc_thetae_141.txt.gz
Theta_e
301 301 301 301 301 301 301 301 301 302 302 303 302 304 303 303 303 301 299 304 298 292 292 293 293 290 291 290 287 290 289 291 289 284 284 284 284 287 286 290 290 287 285 284 286 287 287 301 299 295 303 305 306 308
300 301 300 300 300 301 301 301 301 301 301 302 301 304 302 303 303 304 298 303 304 295 293 297 297 297 296 295 292 292 290 290 291 287 287 289 286 289 289 285 295 287 292 290 292 293 302 302 302 303 305 307 304 307
300 300 300 300 300 301 301 300 300 301 301 301 302 303 302 302 303 303 301 302 299 292 292 292 292 297 300 298 299 289 292 294 291 293 288 288 287 292 287 290 291 296 299 294 295 300 302 301 303 303 304 305 305 307
299 300 300 300 301 301 300 300 300 300 301 302 301 303 303 301 302 302 300 303 299 291 285 289 299 296 300 299 298 298 296 297 296 295 290 288 285 290 292 293 293 296 298 296 296 299 303 304 301 302 302 304 303 305
299 299 299 300 300 300 300 300 300 300 301 301 301 301 302 301 302 303 303 303 304 293 286 289 295 298 300 299 297 298 297 295 293 289 287 287 291 291 294 294 291 297 296 294 293 301 302 302 305 303 302 303 304 304
299 299 299 300 300 299 299 299 299 300 301 301 301 301 301 301 301 299 292 301 304 299 288 284 294 294 297 299 298 296 297 295 293 290 289 291 295 293 286 289 296 298 300 302 300 304 305 305 304 304 302 305 305 305
298 299 299 299 299 299 299 299 299 300 301 301 301 301 301 301 302 294 291 299 302 300 287 284 287 294 297 297 297 296 298 295 294 291 289 290 292 293 289 286 295 299 300 301 302 303 300 302 301 303 304 306 307 306
298 298 298 298 298 298 299 299 300 300 300 300 300 300 301 301 300 295 300 302 299 295 292 285 285 289 297 291 289 296 293 294 292 291 291 289 292 292 286 293 296 297 300 301 301 303 302 305 302 303 304 306 305 304
298 298 298 298 298 298 298 300 300 299 299 299 300 300 300 296 293 295 300 301 300 291 284 286 284 283 296 293 294 293 295 287 294 289 289 291 288 286 291 293 295 297 298 299 302 302 301 301 301 301 303 304 304 305
298 297 297 297 297 298 299 299 299 299 298 299 298 293 287 293 300 300 294 290 291 289 290 285 290 285 292 292 290 290 291 288 284 288 293 286 288 293 295 296 298 299 299 300 298 299 300 300 301 301 301 304 305 306
297 297 297 297 298 299 298 298 299 298 298 296 290 287 295 299 296 291 285 284 285 282 286 287 288 285 292 287 287 292 288 288 283 287 286 285 285 291 296 296 298 299 299 301 301 302 304 304 302 301 302 303 305 306
296 296 297 297 298 298 298 298 298 298 296 294 293 293 291 287 285 283 282 284 283 282 288 285 287 289 290 295 289 290 285 287 281 291 286 283 290 295 296 297 298 299 299 300 301 301 302 303 304 303 303 303 304 305
296 296 297 297 298 298 298 298 299 298 297 295 288 286 284 285 280 278 276 280 281 287 288 287 285 288 290 293 289 288 283 282 291 284 283 287 292 294 297 298 300 301 301 300 300 301 302 303 304 304 303 304 305 304
296 296 297 297 296 297 298 298 297 296 292 287 283 278 280 279 282 283 283 285 289 290 290 289 288 287 290 287 288 282 286 288 280 279 281 288 292 294 297 298 298 298 300 301 301 301 302 302 303 304 304 305 304 304
296 296 297 296 297 297 298 298 297 295 291 284 283 277 280 285 286 288 289 289 291 293 290 289 289 289 286 285 286 284 282 279 281 282 287 291 296 297 297 298 298 298 298 299 302 302 302 301 302 303 304 305 304 305
296 296 295 296 297 297 297 297 295 294 289 284 282 280 284 284 285 286 285 286 291 291 290 290 283 283 282 285 282 280 280 279 284 289 295 296 296 297 297 297 298 298 298 298 301 302 303 301 301 302 303 304 304 304
295 293 297 298 298 298 297 294 291 286 284 281 279 285 284 285 285 286 287 288 293 289 285 285 283 281 288 283 282 285 283 286 290 295 296 296 295 295 296 296 296 296 296 297 298 302 303 303 303 301 301 302 303 304
293 296 297 297 297 296 295 293 287 284 280 282 281 284 286 287 286 287 289 290 289 287 287 284 287 283 282 281 283 288 291 294 295 296 297 297 296 296 295 295 295 295 296 297 298 299 302 303 301 301 302 302 302 302
295 296 297 297 296 289 284 285 286 281 282 283 284 286 287 287 289 289 289 290 290 292 288 285 284 283 284 288 291 292 293 293 292 293 294 295 296 295 294 295 296 295 295 295 296 297 299 301 303 303 303 303 301 302
296 296 296 296 295 287 283 284 286 283 281 284 286 285 286 286 288 289 290 290 288 286 284 283 284 288 290 293 296 295 294 293 292 290 291 294 295 295 294 294 295 294 295 295 294 295 297 298 300 302 303 303 302 301
295 296 296 295 289 289 287 284 283 285 286 285 287 286 285 287 286 286 287 291 286 285 284 286 285 286 292 296 296 294 292 292 290 290 290 291 294 293 294 295 294 294 294 294 293 294 294 297 298 299 300 300 301 302
292 295 293 293 285 284 284 287 285 287 284 286 286 286 284 283 285 286 290 286 286 288 288 288 288 289 292 291 291 292 292 292 292 292 292 292 293 293 293 293 293 292 293 292 293 294 295 296 297 298 298 299 299 300
292 291 287 285 283 282 282 288 282 283 280 282 285 283 283 284 286 289 284 286 288 292 292 291 290 291 290 291 291 291 292 291 291 291 292 293 295 296 295 294 293 292 292 293 293 293 294 294 294 296 297 296 297 296
290 284 282 281 283 280 284 282 285 283 284 282 282 280 282 284 286 283 281 286 289 291 290 290 290 289 290 290 289 290 291 292 291 292 293 292 294 295 294 294 293 293 292 292 293 293 293 293 294 295 295 295 295 294
282 280 282 279 283 281 280 280 281 281 279 281 281 280 281 284 280 279 280 285 288 289 290 290 290 290 289 290 290 291 292 291 290 290 292 293 293 296 296 294 293 293 294 292 292 292 292 293 293 294 294 294 293 293
278 280 280 280 281 280 280 278 279 280 281 280 281 283 284 282 278 278 282 287 288 289 290 289 289 289 290 291 290 291 292 293 293 291 292 294 294 294 294 293 292 293 294 294 293 292 292 292 292 292 292 293 293 292
277 278 282 285 283 283 281 283 284 282 279 278 281 281 281 276 276 282 288 290 289 291 292 293 293 292 292 292 293 293 294 294 293 293 294 294 294 296 295 293 292 294 295 294 294 294 292 292 292 292 292 292 292 292
282 283 279 281 281 283 279 280 280 279 280 283 282 279 277 278 280 287 290 291 292 293 294 295 295 295 294 294 294 294 294 294 294 294 294 295 295 296 296 296 296 293 295 295 295 295 294 293 293 292 292 291 292 293
280 284 283 280 281 282 281 281 281 284 286 284 281 280 282 286 289 290 292 293 294 292 292 292 293 294 294 294 294 294 294 293 291 290 290 291 292 294 296 296 296 296 296 294 294 295 295 294 293 293 292 292 292 292
281 285 281 280 278 278 282 285 285 287 287 287 287 286 286 288 290 293 292 291 291 290 292 293 294 293 292 292 291 292 294 294 294 292 290 291 293 296 296 295 295 296 296 295 294 294 295 293 292 291 291 290 291 290
284 283 281 281 280 282 284 285 286 285 285 285 286 285 285 287 289 292 291 291 291 291 290 290 291 292 291 291 291 290 290 294 294 294 295 296 296 296 297 296 296 296 296 295 294 293 292 292 291 289 289 289 290 290
281 280 280 278 280 284 284 283 283 283 283 283 283 284 284 284 283 288 288 288 288 288 288 289 289 290 292 293 294 294 293 294 295 295 294 295 295 296 297 296 296 296 296 295 295 294 293 292 291 290 289 288 289 289
282 282 281 280 280 280 282 281 280 280 280 281 282 282 283 283 282 287 287 288 286 285 286 288 288 289 290 290 291 293 294 294 295 294 294 295 295 296 297 296 296 296 295 295 294 294 292 292 291 290 289 289 289 288

GFSWCAN_sfc_thetae_144.txt.gz
Theta_e
304 303 302 302 302 302 302 302 302 302 302 302 302 303 303 303 303 297 294 296 292 287 289 292 293 290 290 289 285 288 287 288 288 282 282 281 280 282 281 284 285 285 283 283 285 283 282 299 298 294 297 301 301 301
304 303 301 301 301 301 301 302 302 301 301 301 302 302 302 302 304 302 296 298 299 293 292 297 296 296 295 294 290 291 288 288 290 286 285 286 283 284 284 278 288 282 289 286 288 287 297 300 298 301 299 299 300 301
300 301 301 301 300 301 301 301 301 301 301 300 301 302 302 303 303 302 299 300 298 293 292 292 291 296 298 297 297 287 290 292 292 294 289 286 281 286 281 283 286 290 294 290 291 294 296 299 301 298 300 300 302 302
300 301 300 300 300 300 301 301 301 301 301 300 301 302 301 303 303 302 299 301 298 292 284 287 297 293 298 298 297 296 293 294 294 294 288 286 283 289 284 287 285 290 294 291 292 296 298 300 301 302 300 300 301 302
301 300 299 299 300 300 300 301 301 301 300 300 301 301 301 301 302 302 301 301 301 293 285 287 293 294 298 298 296 296 294 292 291 288 285 285 289 288 288 289 286 291 291 291 289 297 297 298 302 301 300 300 301 301
299 299 299 299 300 300 300 300 300 300 300 300 301 301 301 300 300 298 291 299 302 300 289 281 294 292 295 296 295 294 294 293 292 290 287 289 292 289 285 284 290 295 298 299 296 300 301 301 301 301 300 301 302 302
298 298 299 299 299 300 299 299 300 300 300 300 301 301 301 301 299 292 291 298 302 300 288 283 285 292 295 295 295 295 295 293 292 290 288 288 289 290 286 282 290 293 295 296 301 300 297 300 298 300 301 303 305 304
298 298 298 299 299 299 299 299 299 299 300 300 300 300 300 301 300 294 298 301 300 293 290 283 283 287 295 290 289 295 291 292 291 289 290 288 289 288 283 289 293 294 295 296 297 300 299 300 299 299 300 302 301 301
297 297 298 299 298 298 298 299 299 300 300 299 300 299 299 296 292 293 302 302 300 292 284 284 281 281 294 291 292 292 292 286 292 287 287 289 286 283 288 290 292 293 294 295 297 299 299 298 297 299 298 299 300 301
297 298 298 298 298 298 298 299 299 299 298 298 298 292 287 293 300 300 294 289 289 288 287 283 288 284 290 289 287 287 289 285 282 286 291 286 285 290 293 294 295 296 296 296 294 294 296 297 297 297 297 299 300 302
297 297 298 297 297 297 298 299 299 298 298 295 290 287 295 299 295 290 284 282 284 282 285 286 286 284 291 284 285 289 285 285 281 284 285 283 283 288 292 293 295 296 296 297 297 297 298 299 300 298 298 299 300 300
297 297 297 297 297 297 298 298 298 297 295 294 293 293 291 288 284 282 281 283 282 280 286 284 286 287 288 292 286 287 283 285 280 288 284 281 287 291 292 293 295 296 296 296 297 296 298 300 300 301 300 299 300 300
297 297 297 296 297 298 298 298 298 298 297 295 289 285 283 283 278 276 274 279 280 285 288 287 285 288 288 290 286 284 280 280 288 282 281 284 292 294 294 295 295 296 297 297 297 298 299 299 300 300 300 300 301 300
296 297 296 296 297 298 297 298 298 297 293 285 283 278 279 279 279 281 282 284 287 289 288 287 286 286 288 285 285 280 283 284 279 277 279 284 288 290 292 295 295 294 296 297 297 298 298 298 298 300 301 301 299 300
296 296 296 296 297 297 297 298 298 295 288 283 283 276 278 284 285 286 288 288 289 291 289 287 287 288 286 283 284 283 280 276 278 278 282 287 289 292 294 295 294 294 295 296 296 298 299 299 299 299 300 300 299 300
296 295 294 297 297 297 297 297 294 292 287 284 282 279 283 282 283 285 285 285 290 290 290 289 283 281 281 282 281 279 277 277 281 285 289 293 292 293 293 294 294 294 293 294 295 296 298 299 298 298 300 299 299 300
295 292 296 297 297 296 298 294 290 285 284 281 279 283 283 283 282 285 286 287 291 287 283 284 278 278 284 281 280 282 280 283 286 289 292 293 292 292 292 293 293 293 292 292 293 294 295 299 298 297 296 297 298 300
292 295 296 297 296 295 294 292 285 283 279 282 280 282 284 285 284 285 287 289 288 287 285 280 285 280 280 278 280 285 287 289 291 291 293 294 293 293 293 291 292 292 292 292 292 294 295 295 298 297 297 297 297 298
294 296 296 297 295 289 284 284 285 279 281 283 284 284 285 285 287 288 288 289 290 290 287 284 280 279 281 285 286 288 290 291 290 291 291 292 293 294 293 293 293 292 291 291 291 292 294 295 298 298 297 297 296 297
296 296 297 297 295 286 282 282 286 282 280 283 284 283 284 285 287 287 288 288 287 286 283 281 282 284 285 288 291 290 293 291 289 289 289 290 292 292 292 293 293 292 290 291 291 294 292 294 296 299 299 298 297 296
295 295 296 295 290 288 285 283 282 283 285 284 285 285 284 286 285 284 285 289 286 283 283 285 286 288 290 289 291 291 291 290 288 289 287 287 290 290 292 293 295 293 292 290 290 291 292 292 294 296 297 299 299 299
294 296 292 292 285 285 284 287 285 287 283 284 284 285 283 282 283 284 288 286 284 286 288 288 288 288 288 289 291 290 291 290 290 289 292 291 289 291 292 293 293 291 290 290 290 290 290 292 294 294 295 296 297 297
293 290 286 285 282 282 280 288 281 283 279 281 284 281 281 282 284 288 283 285 286 290 291 290 291 291 290 290 290 289 290 289 288 289 289 289 291 293 294 293 294 292 289 289 290 290 290 293 292 292 293 294 294 294
291 285 282 281 280 276 283 281 283 282 282 280 279 276 280 283 285 283 280 283 287 290 290 290 291 288 289 289 287 288 289 289 288 289 290 289 289 292 293 292 293 293 292 291 291 291 291 291 293 291 291 292 292 292
280 280 281 277 282 280 279 279 280 280 277 279 278 277 280 284 280 279 279 282 285 287 288 289 289 288 287 287 288 288 290 289 288 288 289 291 290 291 293 293 293 293 293 292 291 291 290 291 291 291 291 291 291 291
277 280 278 280 281 280 280 277 278 279 279 277 280 282 283 281 277 276 280 284 285 286 287 287 287 287 287 288 288 289 290 291 290 289 290 291 291 290 291 290 291 292 294 294 292 291 291 291 290 290 290 292 294 291
276 279 282 285 283 282 281 282 282 280 279 276 279 279 280 274 275 280 284 287 287 288 290 291 290 289 289 289 290 291 291 291 290 291 292 292 292 292 291 290 290 292 295 294 294 293 291 291 290 290 289 290 290 291
282 282 279 281 281 282 278 280 279 279 280 282 281 278 276 277 279 285 287 289 290 290 291 292 293 292 290 290 290 290 290 291 292 292 292 292 292 292 292 293 293 294 294 294 294 294 293 292 291 290 289 289 289 290
280 284 283 280 281 281 281 280 280 282 284 282 280 279 280 284 287 287 289 290 291 290 289 289 290 292 291 291 291 291 290 290 288 286 285 286 288 290 292 292 293 293 293 293 295 295 294 293 292 291 291 290 289 290
281 285 281 280 279 277 281 283 283 284 285 285 284 284 284 285 287 290 289 289 288 287 289 290 290 290 289 289 288 289 290 290 290 289 287 287 289 292 292 292 293 293 294 293 293 293 294 292 292 291 290 289 289 288
283 282 280 280 278 281 282 283 284 284 283 283 284 282 282 284 287 288 288 288 288 288 287 287 287 288 288 288 287 287 286 290 291 291 292 291 291 292 293 293 293 294 294 293 292 291 290 290 289 289 288 287 288 288
281 280 279 276 278 282 283 282 282 281 282 281 281 282 282 281 281 285 286 286 286 285 287 287 286 287 289 290 290 291 292 290 291 291 292 291 291 292 293 293 293 294 293 293 293 292 291 290 289 288 288 287 287 286
281 281 280 279 278 279 281 280 280 279 280 279 280 281 281 281 281 284 285 285 284 283 284 285 286 287 287 287 288 289 290 290 292 294 294 295 295 295 293 293 293 293 293 292 292 291 291 290 289 288 288 288 287 286

GFSWCAN_sfc_thetae_147.txt.gz
Theta_e
306 306 305 305 304 304 303 303 302 302 302 302 302 302 302 302 302 300 294 297 291 285 288 292 292 289 290 289 284 286 286 286 285 274 275 277 276 278 278 280 279 280 280 280 281 278 276 294 294 291 295 298 300 300
306 306 306 306 305 304 303 302 302 302 302 302 302 302 302 302 302 302 294 297 297 287 289 295 296 297 294 293 289 289 286 284 285 278 277 280 277 280 279 275 283 278 284 284 284 284 292 294 293 297 299 297 299 299
303 303 300 298 299 301 302 301 301 302 301 301 302 301 302 302 302 301 296 297 295 290 290 289 289 295 297 296 295 284 285 288 288 288 284 282 274 281 278 281 283 285 289 285 285 288 293 295 297 299 300 299 300 301
304 303 302 300 301 302 301 301 301 301 301 301 301 301 301 301 302 302 296 297 295 289 283 284 294 291 295 294 294 292 290 291 290 288 283 280 278 285 280 283 283 285 287 286 286 290 293 295 297 299 299 300 301 300
302 302 302 302 302 300 300 300 301 301 301 301 301 301 300 301 301 300 297 296 297 288 279 284 291 293 293 292 292 293 291 288 285 282 282 280 286 285 285 285 283 288 286 283 284 292 293 294 298 300 300 301 301 300
301 301 301 301 299 299 300 300 300 300 300 300 300 300 301 301 299 296 288 295 299 296 284 279 287 289 290 291 291 291 291 289 288 285 283 286 289 287 283 278 287 289 291 292 289 296 297 299 300 301 300 303 302 301
301 301 299 298 299 299 299 299 300 299 300 300 300 300 300 301 297 290 289 295 300 297 287 279 279 288 291 290 290 289 291 292 290 288 286 285 288 289 285 279 286 289 291 293 295 296 294 298 298 300 303 303 303 302
300 298 298 298 298 299 299 299 299 299 299 300 300 300 300 299 298 292 295 299 297 289 289 279 279 283 292 286 286 290 290 290 290 288 288 285 288 287 281 285 288 290 291 292 293 296 297 300 300 300 303 304 301 300
297 297 297 297 298 299 299 298 298 299 299 299 299 299 296 294 288 290 300 301 295 286 274 278 273 274 290 286 287 287 287 285 290 285 286 288 285 281 284 286 288 290 290 291 294 297 297 298 299 298 302 302 298 299
296 296 297 297 298 298 298 298 298 299 298 298 294 289 284 289 300 298 292 288 288 288 287 281 284 281 287 287 286 284 284 280 280 284 287 284 281 287 289 290 292 293 294 294 291 291 294 295 296 296 300 299 298 299
296 296 297 298 298 298 297 297 298 298 297 293 288 285 291 298 290 288 281 282 282 281 283 284 284 281 287 280 280 286 283 285 278 279 280 280 281 286 289 290 291 293 294 295 294 295 296 297 297 297 298 300 298 299
296 297 297 297 298 297 297 297 298 294 292 291 290 292 291 286 283 279 278 281 280 275 279 281 283 284 285 286 281 281 278 281 276 287 283 277 284 288 288 290 292 293 294 294 295 295 296 296 298 298 298 301 301 300
296 297 297 297 297 297 296 297 298 296 296 292 286 282 281 278 275 274 271 274 273 281 283 283 281 283 283 285 279 277 271 273 284 277 278 282 288 292 288 291 292 293 294 294 294 295 296 296 297 297 298 299 299 299
296 296 296 297 296 296 297 297 297 297 292 281 279 273 274 270 274 279 279 276 282 284 283 283 284 283 284 281 280 275 278 276 274 275 277 283 287 289 292 292 292 292 292 293 293 294 295 295 295 297 298 299 299 299
296 296 296 296 296 297 297 298 298 293 288 281 279 270 273 279 283 283 285 284 287 288 286 286 285 283 282 280 277 275 274 272 275 276 279 284 287 289 291 291 291 291 292 293 294 294 294 295 295 296 298 299 299 299
296 295 293 296 296 297 297 297 293 290 286 283 279 271 278 278 279 283 282 281 286 286 289 287 280 280 279 280 279 275 273 275 278 281 285 288 289 290 290 292 292 291 290 290 291 292 294 294 295 296 298 299 298 299
295 289 295 296 297 297 297 293 290 284 283 279 278 280 278 279 281 283 284 282 289 283 276 280 277 272 276 272 278 278 278 282 283 284 286 289 289 289 289 290 291 291 290 290 289 290 291 294 295 295 295 297 297 299
289 291 295 296 295 295 292 290 285 280 277 273 274 278 280 281 282 283 285 285 285 284 283 274 277 275 271 272 277 281 283 286 286 288 289 290 291 290 290 288 289 290 290 290 289 290 291 291 292 294 296 296 296 297
291 292 296 296 294 287 283 284 284 278 275 279 279 280 280 280 283 284 284 285 286 286 282 283 278 277 277 281 281 284 286 286 287 289 290 288 289 291 290 290 291 290 289 288 288 289 290 291 293 294 295 295 294 295
296 296 297 297 293 284 280 281 285 280 274 278 280 279 279 280 282 283 281 283 281 278 279 279 279 279 281 283 285 287 287 288 288 288 288 288 287 288 288 289 290 291 289 288 289 293 290 289 292 294 295 295 295 295
294 294 296 293 287 285 281 281 280 281 281 278 280 279 279 281 280 280 281 284 283 282 279 280 278 282 287 288 291 291 290 289 288 288 287 287 287 286 287 289 291 292 289 288 288 289 291 289 291 292 295 295 296 297
290 295 290 291 282 283 281 282 277 281 280 279 280 280 279 277 278 280 283 280 282 282 282 284 286 287 288 287 289 290 291 290 288 289 291 289 285 286 288 291 292 291 291 289 288 288 289 289 289 291 293 293 295 295
292 289 286 284 279 277 274 282 275 277 272 272 279 274 272 276 280 284 279 282 283 286 288 289 290 290 289 290 290 290 288 286 286 287 287 287 287 289 290 292 294 292 291 291 288 288 288 291 291 290 292 293 293 293
290 282 278 277 275 271 278 279 279 277 279 274 273 271 273 275 281 277 278 280 284 287 288 289 289 288 289 288 287 287 287 288 287 288 288 288 288 289 291 293 293 294 294 293 289 289 289 289 292 289 290 291 292 293
274 273 279 274 273 276 275 273 276 278 275 279 277 274 275 280 279 279 278 280 282 284 287 289 288 289 287 287 285 286 288 288 286 286 288 289 289 291 292 293 294 294 294 292 289 289 289 289 289 289 289 290 290 291
267 272 275 273 274 276 276 273 277 278 279 278 277 278 279 280 277 276 278 281 282 284 285 286 287 286 285 286 285 286 288 289 289 287 289 290 289 289 289 289 290 291 294 294 291 289 289 289 289 289 289 291 293 290
271 276 279 282 283 281 281 281 281 279 277 273 274 274 276 275 273 278 281 283 284 286 287 289 288 287 287 287 288 289 289 289 289 289 291 290 290 291 291 289 290 292 295 295 293 291 290 289 289 289 289 289 289 290
281 281 278 279 279 279 275 278 278 278 277 278 279 275 272 275 276 281 284 286 287 287 289 290 291 290 288 288 288 288 289 289 290 290 289 290 291 291 292 293 293 294 294 295 294 293 291 291 289 289 289 288 288 289
280 282 282 279 280 279 278 279 278 280 281 279 278 278 279 281 284 284 286 287 288 287 286 286 288 289 289 289 289 289 288 288 287 284 284 284 286 289 291 292 292 293 293 294 295 295 293 291 290 289 289 289 288 289
279 283 280 280 277 277 280 281 281 281 281 281 281 281 281 281 283 285 285 285 285 284 285 286 287 287 286 286 286 287 288 288 288 287 285 285 286 290 290 290 291 292 293 293 293 292 294 292 292 289 289 288 288 287
281 281 279 280 276 278 279 280 280 281 280 280 281 280 279 281 283 284 284 284 284 284 284 284 284 285 285 285 285 284 285 288 288 289 289 289 289 289 290 291 291 293 293 292 291 291 290 290 289 288 287 287 287 287
279 278 277 273 274 277 279 279 279 278 279 278 278 279 280 279 279 282 282 282 282 281 284 283 282 283 285 286 286 287 290 288 289 290 290 289 289 290 291 291 292 293 292 292 291 291 290 289 289 289 287 286 287 285
279 278 277 275 272 278 278 278 279 278 279 279 278 279 279 279 279 282 282 282 281 281 281 281 282 283 283 284 285 285 288 287 288 292 293 294 295 293 292 291 291 292 291 291 291 291 290 289 289 288 288 287 286 285

GFSWCAN_sfc_thetae_150.txt.gz
Theta_e
307 307 307 306 306 305 305 305 305 304 304 303 302 303 303 302 302 299 292 297 293 285 287 290 292 289 289 287 282 286 286 285 284 279 278 276 276 277 276 277 277 275 272 274 279 276 274 289 291 285 290 295 295 297
306 306 306 306 307 305 306 306 306 304 303 303 302 302 302 302 302 302 291 298 297 286 286 294 295 296 294 293 289 289 286 285 286 281 278 279 277 278 277 273 280 275 279 275 280 280 288 291 289 292 295 296 296 297
305 306 306 305 305 303 302 301 301 303 303 302 302 301 302 302 302 300 293 297 294 287 288 289 289 295 298 297 296 285 287 290 289 288 284 279 273 279 273 276 278 282 286 281 282 286 288 290 292 293 297 297 299 298
303 303 304 306 304 302 302 301 302 303 301 301 301 302 302 302 301 301 294 297 292 289 282 285 293 289 295 295 294 293 291 291 291 289 283 278 277 282 276 279 279 281 284 283 283 286 290 291 293 294 296 298 299 300
302 301 300 304 304 302 302 303 302 300 300 301 301 301 301 301 301 298 297 298 296 288 277 284 290 292 293 292 291 291 290 287 284 281 277 276 281 281 280 281 280 284 283 281 280 287 288 290 294 297 298 298 300 300
302 303 301 301 302 302 302 300 299 300 300 300 300 300 301 301 300 295 288 295 297 296 284 279 287 287 288 289 290 290 289 287 286 282 278 281 285 282 274 276 283 286 289 290 287 291 291 292 295 298 298 299 301 302
302 302 301 302 302 301 299 299 299 300 300 300 299 300 300 300 294 289 287 294 300 296 285 279 278 286 289 288 287 286 288 286 288 287 285 282 283 286 277 276 283 285 289 291 292 291 289 291 292 297 299 300 302 302
302 302 302 302 301 298 298 298 299 299 299 299 299 300 300 299 297 290 292 297 298 291 289 279 276 280 288 283 282 287 284 287 289 288 288 285 286 286 280 284 286 288 289 290 291 292 291 294 294 296 300 299 300 301
301 302 301 299 298 298 298 299 299 298 298 298 298 299 294 293 288 290 299 300 296 287 276 279 273 272 286 285 285 287 287 283 290 284 284 285 281 280 284 285 287 288 288 288 290 291 292 292 294 297 299 298 298 298
299 299 298 297 297 298 299 299 298 297 297 297 293 289 285 290 298 298 292 288 288 287 286 280 282 276 282 282 283 285 286 281 280 283 288 284 281 286 287 288 289 290 291 291 288 288 290 290 294 295 297 299 299 301
294 295 296 297 297 298 298 298 297 297 297 292 288 285 290 297 291 287 281 279 275 279 282 282 280 278 283 279 281 285 281 284 276 278 280 278 277 284 288 288 290 291 291 291 292 293 292 294 297 297 297 299 300 302
295 295 296 297 297 298 297 297 297 294 291 291 291 291 289 283 281 278 276 274 274 273 276 280 281 282 282 285 283 283 279 281 272 284 280 277 283 288 288 289 290 290 291 291 292 292 293 294 296 297 297 299 302 302
295 296 296 297 297 297 297 296 296 297 296 293 287 281 275 275 274 273 263 275 275 278 280 280 280 283 283 284 280 277 270 273 282 280 275 281 287 289 291 289 290 292 291 292 293 293 295 294 295 296 296 300 302 302
295 296 296 297 297 297 296 296 297 295 290 283 277 272 274 263 271 270 272 275 281 284 284 284 282 281 282 280 279 273 276 274 270 274 277 281 285 286 288 288 291 291 291 291 292 293 293 293 294 295 296 297 300 301
296 296 296 296 296 296 296 296 298 293 287 280 280 271 273 278 278 283 284 284 284 286 285 284 282 281 280 277 276 274 271 269 273 277 279 283 288 289 290 291 291 290 290 291 292 293 293 292 293 294 295 297 298 300
295 294 292 296 296 296 296 297 293 290 285 281 275 274 277 277 275 280 284 283 287 287 288 286 281 279 278 277 277 274 271 274 278 280 283 285 287 288 291 292 291 291 289 289 290 290 291 291 293 294 295 296 297 298
295 289 295 295 296 297 297 292 288 283 277 271 270 280 278 277 277 277 284 282 285 282 276 281 276 274 275 274 274 279 278 280 281 284 286 287 286 288 289 289 289 289 289 289 289 289 290 291 292 293 293 295 297 297
288 292 295 295 294 294 292 288 284 280 273 270 274 277 278 279 279 281 284 284 283 278 280 273 280 274 275 268 276 280 281 283 285 285 286 286 287 287 289 289 288 289 289 288 288 288 289 289 290 291 293 294 296 296
291 291 295 296 294 287 284 284 279 268 271 278 278 278 279 279 281 282 284 285 285 285 281 279 278 275 275 278 279 281 282 283 284 285 287 287 287 286 287 289 289 289 289 288 287 288 289 289 290 291 292 294 293 295
296 296 296 296 293 283 280 280 284 275 270 278 278 278 278 279 281 281 280 282 279 278 278 278 277 278 279 281 283 284 285 289 287 286 286 287 287 285 286 286 287 288 289 289 288 291 288 289 290 291 292 293 293 293
293 292 295 293 287 282 277 280 279 278 277 278 280 279 279 280 280 279 280 282 277 280 279 278 274 279 283 285 287 287 289 288 288 288 286 287 287 285 285 285 287 288 289 288 287 288 289 288 289 290 290 292 294 294
289 294 288 290 281 282 280 283 277 280 279 278 278 279 278 277 278 279 281 278 279 281 280 280 282 284 285 285 288 287 288 289 289 289 290 290 287 286 285 286 288 288 288 288 288 287 287 288 288 289 288 290 293 293
292 289 286 283 278 274 269 282 276 277 274 269 277 273 271 275 279 282 278 280 281 283 285 285 287 288 288 289 288 289 289 289 286 286 287 286 286 285 286 287 290 290 290 291 291 289 287 290 290 290 289 290 291 292
289 277 274 273 268 267 275 279 278 277 275 270 268 268 272 274 279 275 277 279 281 284 285 287 289 288 288 287 286 287 287 286 286 286 287 286 286 287 290 293 293 294 294 294 293 292 288 288 290 288 288 289 290 291
273 272 272 273 278 275 275 275 277 277 273 277 275 273 274 278 274 276 277 279 280 282 284 287 288 289 287 287 286 286 287 286 286 286 288 288 289 289 291 292 292 293 295 292 291 291 288 287 287 287 288 288 290 290
267 271 274 272 276 276 276 274 275 276 278 277 278 279 278 280 276 275 278 280 281 283 285 286 287 287 287 287 286 285 287 288 287 286 288 289 289 288 288 289 286 289 293 293 293 291 288 288 287 287 287 289 293 290
268 270 277 280 281 281 278 280 280 279 278 275 275 277 277 274 274 278 281 282 283 285 287 288 288 287 286 286 287 288 288 288 288 288 290 290 290 291 290 289 290 292 294 294 294 291 288 288 287 288 288 288 289 289
277 279 277 279 279 280 278 278 278 276 276 278 279 274 272 274 275 281 282 285 286 287 287 289 290 288 287 287 288 288 288 288 289 288 288 288 290 291 291 292 292 294 295 295 295 294 290 289 288 287 287 287 287 288
281 283 283 278 280 279 278 278 278 279 279 279 278 277 278 281 282 283 285 286 286 286 285 285 286 288 288 288 288 288 288 288 286 284 284 284 284 287 290 291 292 292 293 294 295 295 294 291 290 289 288 288 287 287
279 283 281 280 278 277 279 280 281 281 280 280 280 280 280 281 282 283 283 284 284 284 285 285 285 285 285 285 285 286 287 287 287 286 284 284 285 288 289 289 291 292 292 293 293 292 294 292 290 288 287 286 286 286
282 281 279 280 276 278 279 280 280 280 280 280 280 279 279 280 282 283 282 282 283 283 283 282 283 284 284 283 283 283 284 287 287 288 288 288 288 287 288 289 290 292 292 292 291 291 291 290 289 286 285 285 286 285
278 279 277 273 274 278 279 278 278 278 278 278 278 279 279 279 278 281 281 281 280 280 283 281 281 281 283 283 284 284 287 286 286 286 287 288 288 289 289 290 290 291 292 291 291 291 290 290 289 288 287 286 287 286
276 277 276 274 271 277 278 276 279 278 279 278 279 280 279 279 279 281 281 281 281 280 280 280 280 281 282 282 283 283 286 285 286 290 291 292 293 293 291 289 290 291 291 291 291 290 290 289 289 289 287 286 286 285

GFSWCAN_sfc_thetae_153.txt.gz
Theta_e
307 308 307 307 307 307 306 306 306 306 307 307 305 304 304 304 303 297 291 294 290 285 286 288 288 285 286 286 282 285 285 286 284 280 279 278 276 278 275 276 278 276 275 274 277 274 272 287 287 283 286 289 292 292
306 306 307 307 307 307 307 307 307 307 307 307 306 304 304 303 302 302 289 295 296 289 287 292 292 293 291 291 289 288 285 285 287 282 281 282 277 277 277 272 278 275 277 274 278 277 286 289 288 290 290 290 291 292
304 305 305 306 306 307 307 307 305 305 305 303 304 303 303 302 302 301 291 293 294 288 287 287 286 292 295 295 297 286 288 290 287 289 284 283 277 280 273 275 276 279 282 279 280 282 284 287 289 291 292 292 294 295
303 304 304 304 305 306 304 306 305 304 303 303 302 303 302 301 302 301 291 292 291 289 281 283 293 290 294 296 296 295 291 292 291 289 285 282 279 282 276 279 278 280 282 280 280 283 285 287 289 291 292 295 295 296
300 301 303 303 303 303 302 304 304 303 303 302 303 301 301 301 301 297 292 293 294 289 280 283 288 291 293 293 293 294 291 289 287 284 281 278 281 281 279 279 277 282 281 278 278 284 283 285 289 291 291 292 295 296
300 300 301 303 303 302 301 303 303 303 303 300 300 300 301 301 300 294 286 291 297 295 285 280 286 285 287 290 290 290 290 286 285 282 280 280 283 280 271 273 282 285 286 286 284 287 287 288 291 293 292 293 295 295
300 301 300 302 303 302 301 302 302 301 300 299 300 300 300 300 292 289 284 292 298 296 285 277 278 284 287 287 286 285 287 285 285 283 281 281 283 284 274 276 282 284 285 286 287 287 286 289 289 293 294 296 298 298
301 300 301 302 303 303 302 302 300 299 299 299 299 299 299 299 296 291 294 298 296 290 289 278 275 278 287 282 281 286 282 284 285 283 286 283 284 284 279 282 285 286 286 286 287 288 289 290 291 292 293 294 293 295
300 300 301 302 302 302 301 300 299 299 299 298 298 298 294 291 289 290 297 297 293 287 277 279 274 272 285 284 283 286 284 281 286 283 284 285 280 278 281 283 285 287 287 287 288 288 288 289 290 291 292 293 294 297
298 298 301 302 302 300 299 299 299 299 298 299 292 287 284 289 296 297 292 287 286 285 285 278 281 277 282 282 282 279 285 281 279 283 287 283 279 285 286 287 288 289 289 289 286 285 287 287 289 291 293 296 298 298
295 294 296 300 299 298 298 299 299 298 297 288 287 285 287 296 292 287 281 280 279 278 281 282 281 277 282 278 276 280 275 279 276 280 281 278 275 283 287 288 289 290 290 290 290 290 290 290 291 291 293 297 297 300
295 295 295 296 297 298 298 298 298 291 288 289 290 291 288 286 282 278 270 274 276 273 275 280 280 280 280 282 277 279 277 280 275 282 280 276 282 288 289 289 288 289 289 289 290 290 291 291 292 293 296 296 297 300
295 294 295 296 297 298 298 298 298 297 295 292 287 281 274 275 268 271 261 270 269 278 279 279 279 281 281 281 279 276 277 275 281 280 278 279 284 288 288 289 288 289 290 290 290 290 291 291 293 293 294 295 296 298
295 296 296 296 297 298 297 297 297 296 291 280 277 272 268 266 268 268 268 270 278 279 277 280 280 282 282 279 281 277 277 275 274 274 276 279 284 288 289 292 291 291 292 292 291 291 291 291 292 294 295 296 296 296
296 295 296 295 296 297 297 297 297 293 288 280 272 266 271 274 271 275 277 278 282 283 283 284 284 284 281 278 276 274 271 273 272 275 278 282 285 287 289 291 291 292 291 291 290 291 292 292 292 293 294 296 296 296
296 295 292 296 296 297 297 296 293 290 286 282 278 274 275 275 272 276 281 282 286 287 288 286 281 280 274 278 275 274 272 273 277 279 282 284 283 285 288 290 291 289 288 290 289 290 290 290 291 292 294 294 295 296
295 288 295 296 296 296 297 291 288 284 282 277 272 277 277 277 275 274 282 284 287 283 279 279 274 276 276 272 271 277 277 279 280 282 284 285 284 285 288 288 289 289 288 289 288 288 289 290 291 291 292 294 295 296
288 291 295 295 294 294 291 289 284 281 277 278 275 276 277 277 278 279 282 284 284 277 276 273 278 276 276 271 274 277 281 282 282 282 283 285 286 286 288 286 288 289 287 288 287 288 288 289 289 290 291 293 294 295
291 291 295 296 293 287 284 283 282 273 272 277 277 278 278 278 280 282 282 284 284 283 279 276 274 272 274 277 278 279 280 281 282 284 286 286 286 286 287 286 287 288 288 287 287 288 288 288 288 289 290 291 292 293
295 295 295 296 292 282 280 280 281 275 272 277 278 277 278 278 279 280 278 280 278 276 277 278 275 277 278 279 281 282 282 284 284 285 285 286 286 285 284 284 285 285 286 287 288 291 289 289 290 289 290 291 292 292
293 291 295 290 286 283 280 279 279 273 276 276 279 278 278 279 279 279 279 281 275 278 276 277 273 277 281 283 283 284 285 286 285 286 286 286 288 284 284 285 285 285 287 287 287 288 290 287 288 289 289 290 291 292
289 293 287 287 282 282 278 280 276 280 278 278 278 279 277 276 277 279 280 277 277 280 279 279 280 281 281 282 284 284 286 286 287 287 290 288 286 284 283 284 284 285 286 287 287 287 287 287 287 288 288 289 291 291
291 288 285 280 273 271 271 282 277 279 275 271 276 272 270 274 278 280 277 279 281 282 283 283 284 284 284 285 286 287 287 287 286 286 286 285 285 285 284 284 286 287 288 291 291 291 291 291 290 290 289 289 289 290
288 278 278 271 266 265 276 278 275 278 277 273 267 267 271 273 278 276 277 278 280 282 283 284 286 285 285 284 284 286 287 286 284 284 285 284 284 285 286 289 289 290 293 293 293 292 292 291 290 288 287 287 288 289
273 272 269 269 276 275 274 275 277 276 274 275 267 268 272 277 276 275 276 278 279 280 282 284 286 286 286 285 286 287 288 285 285 285 287 288 288 288 288 289 291 292 292 291 291 291 291 290 287 286 286 287 287 288
264 268 267 267 271 274 274 272 274 275 277 274 277 279 279 276 272 273 277 279 280 281 283 285 285 286 286 286 286 286 286 287 287 286 287 288 288 288 287 288 288 290 292 292 291 291 291 290 286 286 286 287 291 288
267 268 275 279 278 279 278 280 280 278 276 274 278 277 278 273 272 277 280 281 282 284 286 287 287 287 286 286 286 287 288 288 288 288 289 288 289 290 290 289 288 291 293 292 293 293 291 287 286 286 286 286 287 288
275 277 275 278 278 280 277 279 279 277 277 280 279 275 273 274 275 280 281 284 285 287 287 288 290 289 287 287 287 287 288 288 288 288 288 287 289 290 290 291 292 294 295 294 294 295 290 287 286 286 286 286 286 287
279 282 282 277 279 279 278 278 278 280 280 279 277 277 278 281 282 282 284 285 286 285 285 285 285 286 287 287 288 288 287 287 285 283 283 283 284 286 289 289 290 292 292 294 295 295 293 289 287 287 286 287 287 287
279 283 281 280 279 277 278 279 279 280 280 280 280 280 280 280 281 282 283 283 283 283 284 284 284 284 283 283 283 285 286 286 286 285 283 283 285 288 288 289 290 290 292 292 292 292 294 291 289 286 286 285 285 285
283 283 280 280 276 278 279 279 281 281 280 279 279 279 279 280 282 281 281 281 281 282 282 282 282 283 282 281 281 281 282 285 286 285 286 286 286 287 288 289 290 290 291 291 291 291 291 290 289 286 285 284 285 285
279 279 278 273 274 277 280 279 279 278 278 278 277 278 279 279 278 280 280 280 280 280 282 281 280 280 281 282 282 283 286 284 284 285 285 287 287 288 289 289 290 290 291 291 291 290 290 290 290 288 285 284 287 286
276 277 276 273 271 277 278 275 277 278 278 278 278 280 278 278 278 280 280 280 280 279 279 279 279 279 280 281 282 284 286 286 285 289 289 290 291 291 290 289 289 290 289 290 290 290 289 289 289 289 288 286 287 286

GFSWCAN_sfc_thetae_156.txt.gz
Theta_e
305 305 306 307 308 306 306 308 307 306 307 307 306 305 306 305 304 298 291 295 291 286 286 287 287 283 283 283 279 283 284 285 283 278 275 276 277 277 275 279 278 277 275 275 277 274 271 285 284 280 284 287 289 289
303 304 305 306 306 306 306 306 306 306 306 307 307 307 307 306 305 303 291 295 295 289 286 290 291 291 290 288 285 285 284 285 286 282 280 279 278 277 278 274 279 276 277 274 276 276 283 286 286 288 287 287 288 289
303 303 304 304 305 305 306 307 307 307 308 307 307 307 305 305 305 302 292 292 294 289 287 287 286 291 292 292 293 283 287 289 288 290 285 282 276 278 273 277 277 278 281 278 278 281 283 285 287 287 288 288 291 291
300 300 301 302 303 304 305 305 306 306 305 305 306 305 302 302 303 302 291 292 290 289 281 280 290 287 292 293 292 292 290 291 289 286 284 283 281 282 279 279 278 279 281 279 278 281 283 286 287 287 288 290 290 292
299 300 300 300 301 301 303 304 304 304 304 304 304 304 302 302 302 297 291 292 293 286 275 278 285 289 290 290 291 293 292 290 288 285 283 280 282 282 282 281 278 280 279 278 277 281 282 282 286 287 286 288 290 291
299 299 299 300 300 301 301 303 303 303 304 303 303 303 303 302 300 292 288 289 295 293 285 278 284 285 288 288 290 291 292 291 288 285 282 282 283 283 275 273 280 284 284 285 284 286 285 287 287 288 286 288 290 292
298 299 299 300 300 300 301 303 303 304 304 303 303 303 301 300 293 290 283 288 296 295 285 280 278 283 285 285 284 285 288 288 287 284 281 281 281 283 272 274 282 282 283 284 286 287 284 286 285 288 289 291 294 294
298 298 299 301 301 301 301 302 303 303 302 301 300 300 301 300 296 291 292 298 296 290 287 279 275 277 285 282 281 284 281 283 283 282 283 280 281 283 276 281 284 285 285 285 286 286 286 288 287 288 290 290 290 291
298 298 300 301 300 301 301 302 303 301 301 300 300 299 293 290 285 287 297 298 292 286 279 279 270 274 285 282 283 285 284 281 285 283 283 283 279 277 281 282 283 285 284 285 286 287 286 285 286 287 287 288 289 290
298 297 298 300 300 301 301 301 300 300 300 300 292 287 284 289 297 296 292 287 285 283 283 278 280 275 282 283 282 281 285 280 278 281 285 282 278 284 285 286 286 287 288 288 284 284 284 283 285 286 288 290 291 293
297 297 297 297 298 300 301 300 300 299 296 288 284 283 287 295 292 286 282 281 281 278 281 282 280 278 284 278 278 279 272 269 275 276 281 278 275 281 285 285 287 288 288 288 289 289 289 288 288 288 289 291 293 295
297 296 296 296 296 298 299 299 299 290 287 288 287 291 287 285 281 277 273 275 275 275 277 279 280 280 280 282 279 279 274 278 274 282 279 276 280 285 288 289 290 289 287 287 288 289 289 289 290 290 291 292 293 297
296 295 295 295 296 298 299 299 297 297 294 291 286 277 275 274 271 270 263 266 272 278 278 280 279 280 280 280 275 277 277 275 280 279 275 278 283 287 289 290 291 291 291 291 291 290 290 290 291 291 291 293 295 296
296 296 295 294 295 297 298 298 298 295 288 279 271 273 269 267 271 269 270 270 278 278 277 279 279 279 281 279 276 276 275 273 275 274 275 279 282 285 288 290 290 289 290 292 292 291 290 289 289 290 291 293 295 295
296 296 295 293 295 296 297 298 297 292 285 271 271 269 267 272 268 272 271 271 277 280 280 279 281 280 276 279 278 274 271 273 272 275 278 281 284 284 286 287 288 288 289 292 291 290 291 291 289 290 293 293 294 296
296 295 292 296 296 296 296 296 293 290 284 276 275 273 275 275 270 272 277 274 282 285 285 284 273 271 275 278 275 275 272 272 276 278 280 283 283 283 285 287 288 288 289 290 291 291 291 290 290 290 291 292 293 296
295 288 294 296 296 296 297 289 288 284 280 278 276 280 277 276 273 270 280 283 287 282 280 281 277 276 279 276 273 276 276 278 279 281 282 283 282 284 285 286 287 288 288 288 290 290 290 290 290 290 291 292 293 295
288 290 295 296 294 293 291 289 280 275 275 277 273 277 276 277 276 277 280 282 283 282 280 276 279 275 272 273 274 278 280 281 281 281 282 283 283 283 286 286 286 286 287 288 289 289 289 289 289 289 290 291 292 293
291 291 296 296 291 287 284 283 281 270 275 277 277 278 278 278 279 280 281 283 284 283 280 277 276 273 274 277 278 279 279 280 280 281 283 284 284 284 286 285 285 284 285 285 287 289 289 288 289 289 289 290 290 292
296 295 295 296 292 280 276 280 280 270 271 277 277 277 277 277 279 280 278 278 278 276 276 274 274 277 277 278 280 280 281 281 281 281 283 285 285 284 284 285 285 284 284 285 287 291 288 288 289 289 289 291 290 291
293 292 295 291 286 279 278 278 278 274 278 276 278 278 277 278 278 278 279 280 274 273 276 278 275 278 280 280 281 281 282 282 282 282 283 284 286 285 284 285 284 283 284 285 285 287 288 287 288 288 288 289 290 291
289 293 287 288 282 278 279 282 277 278 277 278 278 278 276 275 277 278 280 276 276 279 280 279 280 280 279 280 282 281 283 283 284 285 288 288 285 284 283 283 283 283 284 285 285 286 287 288 288 288 288 289 290 290
292 288 283 281 277 270 273 282 278 279 273 270 275 272 270 273 277 280 277 278 279 281 281 281 283 282 282 283 282 283 284 285 284 284 285 284 284 285 284 284 284 284 286 287 288 288 291 293 292 290 288 288 289 289
288 278 278 276 269 268 276 275 277 277 277 274 268 266 270 272 278 277 276 277 279 281 281 281 283 282 283 283 282 284 286 286 284 284 284 283 283 285 285 286 287 288 289 289 290 292 292 292 293 291 288 286 287 288
273 271 273 272 275 274 274 274 270 275 273 275 269 267 271 276 271 273 275 277 278 279 279 281 281 283 282 283 284 285 288 287 285 285 286 286 287 287 287 288 289 289 292 290 290 290 291 291 291 290 288 285 286 287
264 267 267 266 270 272 273 272 274 274 275 269 274 277 278 276 269 271 276 278 279 281 281 282 283 284 284 286 285 286 287 287 287 285 287 288 287 287 288 287 288 290 293 291 290 289 290 291 290 289 286 286 290 289
263 264 272 276 275 277 275 278 278 277 276 274 276 276 276 270 270 276 279 280 281 283 285 286 286 286 286 286 286 287 287 288 287 288 288 288 288 289 290 288 287 290 293 292 291 291 291 291 290 288 285 285 286 287
272 275 274 276 277 279 275 277 277 277 278 281 280 276 272 274 275 280 281 283 284 285 285 286 288 289 288 287 287 287 288 288 288 288 288 287 288 289 289 289 290 292 293 294 292 292 293 290 286 285 285 285 286 287
277 280 279 275 278 278 277 278 278 280 281 280 278 276 278 282 283 283 283 283 284 284 284 284 285 286 286 286 287 287 286 286 285 283 282 283 284 286 289 289 289 290 291 292 294 294 294 290 287 286 286 286 286 286
277 281 278 280 278 277 279 280 278 280 280 281 280 279 280 281 281 281 282 282 282 282 284 284 284 284 282 282 282 283 285 286 285 284 282 282 284 287 287 288 288 289 290 291 292 292 294 290 288 285 285 284 285 285
282 282 280 280 278 279 279 280 281 281 280 280 280 279 279 280 281 281 280 280 281 282 281 281 281 281 281 280 280 281 281 284 284 284 285 285 286 287 288 288 289 289 289 290 291 291 291 290 287 284 284 284 285 285
280 280 279 276 277 280 280 279 279 278 277 277 277 278 279 279 278 280 279 279 280 279 281 280 279 279 280 281 281 283 285 285 285 284 285 287 287 288 289 289 290 289 289 289 290 290 290 290 290 287 284 285 285 284
276 277 276 273 271 276 278 275 277 276 278 277 278 279 278 278 277 280 280 279 279 278 278 278 279 279 279 280 283 285 286 285 284 288 288 289 290 289 290 290 290 290 289 288 289 289 289 289 290 289 286 284 287 286

GFSWCAN_sfc_thetae_159.txt.gz
Theta_e
303 303 304 305 305 305 307 309 310 308 307 307 307 307 306 305 304 296 292 294 291 285 287 286 286 282 282 283 278 280 280 282 282 278 278 277 277 278 277 278 279 278 277 276 276 275 272 285 286 280 285 288 290 290
304 304 304 304 304 304 305 306 305 305 308 306 307 307 306 305 306 302 290 294 295 289 286 289 290 291 289 288 284 283 282 282 284 280 281 281 278 279 278 274 281 277 280 277 279 279 285 285 287 289 289 288 288 289
302 302 302 303 303 303 304 305 305 305 305 304 305 307 305 305 306 303 296 294 293 289 286 286 285 290 292 292 292 282 285 287 285 290 286 283 279 281 277 277 277 281 283 281 281 284 284 286 289 289 290 289 290 291
299 299 300 300 300 301 301 302 304 304 305 306 306 306 306 306 306 305 293 295 293 288 280 280 289 285 290 291 291 290 288 291 289 286 284 283 280 284 280 280 279 281 283 281 280 282 284 286 287 289 289 290 290 292
298 298 299 299 300 300 300 301 301 302 304 305 305 304 305 305 304 299 295 295 296 288 277 277 284 288 289 289 288 289 288 288 287 285 283 280 284 282 284 282 278 283 281 280 279 283 284 286 288 289 288 288 289 289
298 298 298 299 299 299 300 300 301 301 302 304 304 303 303 303 303 294 287 292 296 293 285 274 283 283 285 286 286 286 288 288 288 286 284 285 285 283 278 274 281 285 286 288 285 286 286 287 287 288 287 289 289 289
298 298 298 298 299 299 299 300 300 301 301 303 303 304 303 303 296 288 284 288 297 294 285 276 277 282 284 285 285 286 291 289 288 285 284 284 283 285 275 275 280 284 286 287 288 286 285 286 286 288 289 290 291 290
298 298 298 298 299 299 300 301 301 301 301 302 303 304 303 300 297 291 295 298 295 287 286 271 274 276 284 281 281 284 283 286 286 285 284 281 282 283 274 281 283 285 285 285 285 286 287 288 287 287 288 288 287 288
297 298 298 298 299 299 301 301 301 301 301 302 299 298 296 291 287 288 299 299 291 283 276 277 272 272 283 281 284 285 283 279 283 282 281 282 279 277 280 282 283 285 284 284 286 286 286 285 286 287 287 287 288 289
297 298 298 298 299 300 300 300 301 301 301 300 294 287 283 287 298 297 291 286 286 285 284 276 277 273 280 284 282 282 285 280 276 279 285 281 278 283 284 285 286 287 287 287 284 284 284 284 286 287 287 287 288 288
297 297 297 297 298 298 299 300 302 301 297 288 284 283 288 297 289 286 281 280 280 278 279 278 279 278 284 279 278 281 273 272 275 275 280 279 277 281 285 286 288 290 290 288 288 288 289 288 288 287 288 288 289 290
297 297 296 296 297 299 300 299 299 290 288 288 288 291 290 285 281 277 268 272 274 276 276 278 279 280 281 282 279 278 275 278 273 281 279 274 280 285 287 289 291 292 291 291 291 289 289 289 289 289 289 290 290 292
296 296 296 295 297 294 299 298 297 296 293 287 282 281 274 273 269 267 262 270 271 277 279 280 279 281 280 280 275 278 276 275 280 278 274 278 283 286 287 288 289 291 292 292 292 292 292 291 290 290 290 291 292 293
295 295 296 294 296 296 298 298 297 293 285 274 268 268 266 266 270 266 269 273 278 279 279 280 279 280 280 278 276 274 275 276 275 273 274 279 282 284 286 287 287 287 288 289 293 293 292 291 290 290 290 292 292 292
294 294 295 293 295 296 298 297 295 290 280 273 270 265 269 272 267 271 271 273 277 279 280 280 279 281 279 276 279 276 274 272 273 274 278 280 283 284 284 286 286 287 287 288 292 292 292 291 290 290 291 291 292 294
294 294 292 294 294 295 297 295 292 289 284 275 275 272 274 273 268 269 273 268 276 278 282 284 273 277 275 273 271 274 272 272 276 279 280 282 282 282 283 285 286 287 287 288 290 291 292 292 290 291 291 292 293 294
294 288 295 296 296 296 293 290 288 282 278 273 276 279 276 275 273 269 276 277 286 284 278 281 275 270 275 275 273 276 276 279 280 281 281 282 282 283 284 284 286 287 287 287 288 290 292 293 292 291 290 291 292 295
286 290 295 295 295 293 290 288 280 276 274 267 272 276 276 277 275 276 278 281 283 282 281 278 280 277 275 274 276 279 281 281 280 280 281 282 282 283 285 284 286 285 285 285 285 288 291 292 291 290 290 291 291 293
289 290 295 296 291 286 282 283 279 274 271 276 277 277 277 278 278 279 280 282 283 284 282 278 276 275 277 277 280 279 279 279 279 280 281 282 283 283 285 285 285 284 284 284 284 287 289 290 291 291 290 291 290 291
296 296 296 296 290 277 274 276 280 270 270 276 277 276 277 277 278 278 278 280 278 276 276 275 276 278 277 278 279 280 280 280 279 279 280 283 283 283 284 284 285 285 284 284 285 290 289 290 290 291 291 292 290 290
292 293 294 291 285 277 272 271 269 272 276 276 278 277 277 278 277 277 278 280 274 275 278 278 275 277 280 280 280 280 280 280 280 280 280 281 285 283 284 285 284 283 283 284 285 286 289 288 289 290 289 290 291 292
290 293 288 288 282 276 271 277 276 278 276 277 279 277 276 274 276 277 279 277 276 279 281 279 279 280 279 279 280 280 281 281 281 282 286 286 283 283 282 283 282 282 282 284 286 286 287 288 289 290 290 290 291 291
291 287 282 279 275 272 271 281 278 279 274 271 277 272 269 272 277 279 276 278 279 280 281 280 281 281 281 281 281 281 282 282 282 283 284 284 284 284 282 283 283 283 284 286 287 287 288 291 292 292 291 291 290 290
288 276 277 275 273 272 276 276 278 277 277 274 273 266 270 271 277 277 276 277 279 280 280 280 280 280 280 280 279 281 283 283 283 284 284 282 282 283 284 284 286 287 287 287 288 290 291 290 292 292 291 290 289 288
274 273 274 268 271 274 273 273 273 274 264 273 271 267 269 275 270 271 273 276 278 278 278 279 279 280 279 280 282 283 285 285 284 283 285 285 284 285 286 287 289 289 290 290 290 290 289 290 290 290 290 289 288 288
265 267 267 267 271 271 272 271 271 273 274 270 273 276 277 273 271 269 274 278 278 279 280 281 282 282 282 283 283 284 286 286 285 285 286 287 286 286 287 287 286 288 292 292 290 288 289 290 290 290 290 289 290 289
263 264 271 275 275 276 274 276 276 275 273 271 273 275 273 266 270 275 278 279 280 281 283 284 284 284 284 285 286 286 287 287 287 288 288 287 287 289 290 287 286 288 291 292 292 290 289 289 290 290 289 288 287 287
271 274 272 275 275 277 272 270 272 274 276 278 277 274 271 273 275 279 281 283 284 284 284 285 287 286 286 287 287 286 287 288 287 287 287 287 288 289 289 289 289 291 291 292 293 292 291 291 290 289 287 285 286 286
276 276 275 270 276 277 277 278 278 280 281 280 278 278 278 280 282 284 284 283 283 283 283 283 284 286 286 286 286 286 285 285 284 282 283 283 284 286 287 288 288 289 289 290 292 294 293 292 290 286 285 285 286 286
276 280 278 278 273 274 279 281 279 280 280 281 281 280 279 280 282 282 281 281 281 281 282 283 283 283 281 281 281 283 285 284 284 283 281 282 283 286 286 287 288 289 289 289 290 292 294 292 287 285 285 285 285 285
281 281 280 279 278 279 280 280 281 281 281 282 281 280 279 280 281 280 279 278 280 281 281 281 281 281 280 280 280 280 281 283 284 284 286 286 286 286 287 288 289 289 289 289 289 290 291 291 289 284 285 285 285 286
281 280 279 276 278 280 280 279 278 278 277 278 277 278 279 278 277 279 279 279 279 279 281 279 279 279 280 280 283 284 286 285 285 283 283 286 287 287 288 288 289 289 289 289 289 289 290 290 290 288 285 285 285 284
275 277 276 273 273 277 278 277 277 276 277 277 276 277 278 278 277 280 281 279 279 278 278 278 278 278 278 279 280 283 285 282 282 287 288 289 291 290 290 289 289 289 288 288 288 288 288 289 290 289 287 286 287 287

GFSWCAN_sfc_thetae_162.txt.gz
Theta_e
304 304 303 303 303 303 305 306 306 307 309 308 309 308 307 306 305 301 298 300 295 288 289 290 290 287 287 286 282 284 284 285 283 279 280 280 279 281 280 282 280 279 277 277 278 276 275 290 288 283 289 293 292 291
304 303 304 304 304 304 304 305 304 304 308 308 308 308 308 307 306 304 297 299 301 293 290 294 294 295 293 291 288 287 284 284 286 281 283 283 280 282 281 277 285 278 283 280 281 282 289 290 290 292 294 291 292 291
301 301 301 301 301 302 303 303 304 304 304 305 305 306 306 307 306 304 298 299 297 290 289 289 289 294 296 295 295 285 287 288 286 289 285 283 280 284 278 280 282 285 288 283 284 287 289 291 292 293 294 293 293 294
299 299 299 299 299 300 300 301 301 301 303 304 304 305 306 306 305 304 297 298 296 289 284 288 293 292 295 296 294 293 291 292 291 288 284 283 282 287 282 283 282 285 286 285 285 288 290 291 292 293 294 295 293 294
299 299 299 299 299 298 299 300 300 300 301 301 302 304 304 305 305 303 301 297 297 290 284 287 289 291 293 293 292 293 291 289 287 284 283 282 287 286 286 285 282 287 285 283 283 289 289 290 293 294 293 293 294 293
298 298 298 299 299 299 299 299 299 299 300 301 301 302 304 302 302 293 286 290 297 293 286 282 289 288 290 291 290 289 290 289 287 285 285 288 289 287 282 281 285 287 290 291 288 291 291 292 294 294 293 293 293 293
298 298 298 298 298 298 298 298 299 300 300 300 300 302 303 303 297 290 290 294 296 296 286 282 283 288 289 290 290 289 290 289 288 285 285 285 286 287 283 279 285 287 289 289 292 292 290 292 290 292 293 293 294 293
297 298 298 298 298 298 299 300 300 300 300 301 301 302 303 302 296 292 296 298 298 289 289 280 280 282 289 287 286 290 287 287 288 286 287 285 286 286 280 285 287 288 289 289 289 291 291 292 291 291 292 292 291 291
297 298 298 298 299 299 299 298 300 300 301 301 300 299 294 289 287 291 299 298 297 290 282 280 278 278 288 288 288 287 287 281 288 283 283 285 283 280 284 285 287 288 288 289 291 291 291 290 290 291 291 291 290 291
297 297 298 298 298 298 299 299 300 301 300 299 294 289 285 287 298 298 291 287 288 287 286 280 285 281 286 286 283 285 286 283 279 283 287 282 281 286 287 289 290 291 293 292 290 289 290 289 290 291 291 292 292 292
297 297 297 298 297 298 299 299 300 301 298 290 287 285 292 298 292 288 282 280 281 279 283 284 283 281 287 281 282 286 282 283 277 281 281 280 280 285 290 291 293 293 294 294 294 295 294 293 292 292 292 293 293 293
296 297 297 297 297 298 299 299 298 293 289 290 291 293 292 287 282 279 278 279 280 279 282 281 283 284 285 288 283 282 280 280 275 284 280 278 283 289 290 291 291 292 292 293 294 295 296 295 295 295 294 294 294 294
296 296 297 296 296 298 300 297 297 296 296 291 287 283 282 278 274 274 271 275 277 282 283 283 281 284 284 285 282 281 277 276 285 278 277 281 286 290 290 290 291 291 291 291 291 294 295 296 297 295 294 295 295 295
296 295 296 296 295 295 298 297 295 293 289 283 279 274 276 274 276 277 278 280 283 284 283 284 282 282 284 280 282 277 281 281 276 274 276 283 287 289 290 290 289 290 291 291 291 293 294 294 295 296 295 296 295 294
295 294 295 294 294 296 297 296 294 292 285 279 279 273 273 278 278 279 280 281 283 286 285 284 284 284 281 279 281 279 276 274 276 277 282 287 289 288 288 289 290 290 290 290 291 292 292 293 293 295 296 296 295 295
295 294 293 294 295 291 296 295 293 290 285 280 278 276 278 278 277 278 280 281 286 287 287 286 280 278 278 278 276 276 275 273 279 283 287 289 288 288 288 289 290 290 290 290 290 290 290 291 291 294 296 295 294 294
294 291 294 294 296 293 294 291 288 283 280 279 279 282 280 281 281 281 282 283 286 283 280 282 277 275 280 276 275 280 277 281 285 287 288 288 287 287 288 288 289 290 290 290 289 289 290 292 294 294 293 294 294 295
291 293 295 296 292 290 289 288 283 280 276 278 279 280 281 283 282 282 284 285 285 285 284 280 282 277 277 275 278 282 285 287 288 287 287 288 288 288 288 288 289 290 290 290 289 289 290 292 293 293 293 294 295 295
292 294 295 296 292 286 284 283 283 276 278 280 281 282 282 282 284 284 285 287 288 288 286 282 278 277 279 283 283 285 286 285 285 286 287 287 288 288 288 289 289 290 290 290 289 289 290 292 294 294 294 295 294 295
295 295 296 295 291 285 280 280 284 279 278 280 281 280 281 282 283 284 284 285 286 284 281 279 279 282 282 284 286 286 287 287 286 284 285 288 290 289 290 289 289 290 289 289 289 291 292 293 295 295 294 294 294 293
293 294 294 293 286 283 281 278 278 280 281 279 281 281 281 282 281 281 282 283 282 281 280 283 285 286 287 287 286 286 286 286 285 285 285 286 289 290 290 291 290 289 288 288 289 291 292 292 293 294 294 294 295 294
291 293 289 289 283 281 280 282 281 282 281 280 280 281 280 279 280 281 283 280 280 282 284 284 285 286 285 285 286 286 287 287 287 286 287 288 287 289 290 290 289 289 289 289 291 291 292 293 293 294 294 294 294 295
292 288 284 281 278 276 276 283 279 280 275 275 278 276 277 279 281 283 280 281 282 285 286 286 286 287 285 287 286 286 287 286 286 287 287 288 290 290 289 289 290 289 290 292 293 292 292 292 292 291 294 294 293 293
289 282 279 276 276 275 278 277 280 278 278 275 274 272 276 278 281 279 277 280 283 285 285 285 285 285 285 285 284 286 287 288 287 288 289 289 289 289 290 291 292 292 292 293 293 293 292 291 291 291 291 291 291 292
277 275 277 273 275 275 274 274 274 275 270 275 273 273 276 279 277 276 275 279 281 283 284 285 284 284 283 285 286 287 289 288 288 288 291 290 290 289 290 292 292 293 294 291 290 290 291 290 290 290 290 291 290 291
268 272 273 272 274 273 274 272 272 274 275 273 274 278 279 277 272 273 277 282 283 284 286 286 286 286 287 287 286 288 290 291 290 288 290 290 290 289 289 289 289 290 294 292 291 290 290 290 290 290 290 291 292 292
267 269 274 277 278 277 276 277 278 277 274 273 276 276 275 271 272 277 283 284 285 286 287 288 288 287 288 289 289 290 290 290 290 290 291 291 290 290 292 290 289 290 292 292 292 291 291 290 289 290 290 291 291 291
275 276 274 276 276 278 273 275 275 275 277 279 279 275 274 274 276 283 285 287 287 288 288 288 289 289 288 289 290 289 290 290 290 290 290 289 290 292 292 291 290 291 291 292 292 292 292 292 290 290 289 289 290 291
276 278 277 271 277 277 277 277 278 280 283 281 278 278 279 283 285 285 286 286 287 286 286 286 287 288 288 288 287 288 287 287 286 285 285 285 286 288 289 289 289 290 290 291 292 292 292 293 291 291 291 290 290 290
277 280 277 276 273 275 279 282 281 283 283 284 285 283 282 283 284 284 284 284 284 284 285 285 284 284 283 283 284 285 286 286 286 285 283 283 284 287 287 287 288 288 289 289 290 291 293 293 291 291 289 289 289 289
281 281 279 280 278 281 282 283 283 283 283 283 283 282 282 283 283 282 281 281 283 284 284 283 283 283 282 282 282 283 283 285 286 286 286 286 287 287 287 288 289 289 290 289 289 290 291 291 290 289 289 289 289 289
281 280 279 278 279 281 282 280 281 280 280 280 280 280 281 280 279 281 281 281 282 281 282 281 280 281 281 282 284 285 286 286 285 284 284 286 287 289 289 290 290 290 289 289 288 289 290 290 290 289 288 288 289 288
277 278 277 276 277 278 279 279 278 277 278 278 278 279 279 280 278 281 282 281 281 280 280 280 281 281 281 281 282 283 285 283 284 286 287 288 290 290 291 289 289 289 289 288 288 289 289 290 290 290 288 288 288 288

GFSWCAN_sfc_thetae_168.txt.gz
Theta_e
305 305 305 305 305 304 305 305 306 305 306 309 309 307 307 307 304 298 296 300 296 290 291 290 290 287 287 287 285 286 284 285 284 277 278 278 278 280 279 281 279 278 275 274 277 273 272 289 289 281 287 291 292 291
303 303 303 303 303 303 304 304 304 304 304 304 304 305 307 307 306 302 295 300 299 294 291 295 294 295 294 292 290 288 287 285 286 282 282 281 278 279 278 274 283 276 280 279 280 279 287 289 289 292 291 291 292 291
302 302 302 302 302 301 302 302 302 302 302 303 303 303 304 306 308 304 298 298 296 293 291 290 289 294 297 296 296 288 288 290 288 289 285 283 275 281 275 277 280 283 287 281 281 284 286 290 291 293 293 292 293 292
300 300 300 300 300 300 300 300 300 301 301 301 301 301 302 303 303 306 297 299 296 292 284 286 296 292 296 296 295 294 292 292 291 289 283 280 277 284 279 281 280 283 284 282 281 285 288 290 291 292 293 293 293 293
299 299 299 299 299 299 300 300 300 300 300 300 299 300 301 301 302 300 299 300 299 291 284 287 293 294 295 295 294 294 292 289 288 284 282 279 282 282 282 282 280 285 282 281 280 286 288 288 291 294 293 293 293 292
299 299 299 299 299 299 299 299 299 299 299 299 299 299 300 300 300 293 285 292 298 298 287 283 292 291 294 294 293 292 291 289 287 286 283 284 286 283 279 277 284 286 287 287 284 287 287 289 290 291 291 293 293 292
298 298 299 299 299 299 299 299 299 299 299 299 299 300 300 300 297 290 288 294 298 295 285 283 283 289 291 291 290 289 290 288 287 286 283 283 284 286 281 277 284 286 288 288 289 288 287 289 287 290 290 292 295 291
298 298 298 298 298 298 299 299 299 299 299 300 300 299 300 299 298 293 296 298 295 287 285 281 282 283 290 284 283 289 286 288 287 285 284 282 284 283 278 283 286 287 287 287 288 289 289 292 293 291 291 291 289 289
298 298 298 298 298 298 298 298 299 299 299 299 299 299 297 293 288 290 298 299 296 289 282 283 279 278 288 286 288 287 288 281 287 282 282 284 281 279 283 284 285 286 286 286 288 290 290 289 291 292 291 291 289 289
297 297 298 298 298 298 298 298 298 299 299 299 295 290 285 288 297 298 287 285 285 285 288 283 285 280 285 286 284 284 284 280 277 281 286 281 279 286 287 288 288 288 289 288 285 287 288 288 288 291 292 294 292 291
296 297 297 297 298 298 298 298 298 298 298 292 287 286 292 298 291 287 283 282 282 279 283 284 283 281 288 281 282 285 281 281 273 279 279 279 277 283 287 288 289 290 290 289 290 291 292 291 290 290 292 294 295 294
296 296 297 297 297 298 298 298 297 294 291 290 291 292 291 287 283 280 278 281 279 278 282 281 282 285 285 287 284 283 279 280 273 284 279 276 281 286 286 287 288 289 290 290 290 290 290 291 290 290 290 293 294 295
296 296 296 297 297 297 296 296 298 297 296 292 287 284 283 282 276 275 272 275 277 282 283 283 280 284 285 286 283 280 274 276 283 276 275 278 283 286 287 287 288 291 290 290 290 291 292 292 293 292 291 294 295 295
296 295 296 296 296 296 293 298 299 296 292 284 281 275 277 274 277 278 278 280 284 285 284 284 283 282 284 281 282 276 279 280 274 273 274 280 285 285 287 288 289 288 289 289 290 291 291 290 291 293 294 295 295 294
295 295 296 296 294 294 295 295 294 293 289 282 282 273 276 282 283 284 286 285 287 287 285 283 283 283 280 279 280 279 275 271 275 274 278 285 287 287 287 288 287 286 287 288 289 289 290 290 290 290 291 292 294 294
295 294 293 295 293 293 294 294 293 292 287 283 281 279 281 280 280 282 284 284 287 287 287 286 280 277 276 279 277 275 274 273 276 280 283 287 286 286 286 287 286 286 286 287 288 290 291 290 290 290 291 292 293 293
294 291 294 295 292 293 293 290 289 283 282 280 280 283 282 282 281 283 285 284 289 285 279 279 272 273 279 274 275 278 275 278 282 283 284 286 286 286 286 285 285 286 287 287 289 290 290 291 290 290 290 293 294 293
291 294 296 295 291 289 289 288 284 282 279 282 281 281 283 284 283 283 285 287 286 284 283 277 282 274 273 271 275 279 283 284 285 286 286 287 286 286 286 284 286 288 287 288 289 289 289 289 289 289 292 294 294 294
293 294 296 294 291 287 284 284 284 279 281 282 282 283 283 284 285 286 286 287 288 288 285 281 276 276 277 280 280 282 285 285 284 284 285 285 286 286 286 286 288 288 288 288 288 288 288 289 289 291 293 294 292 294
295 295 296 294 293 286 282 282 285 282 280 281 282 281 282 282 284 285 286 286 286 285 281 278 279 281 281 282 285 285 284 284 283 282 283 285 287 286 286 287 287 288 288 288 288 292 288 290 292 293 293 293 292 292
294 294 295 294 288 287 284 281 280 283 282 281 282 282 281 282 282 282 283 286 282 281 279 282 282 284 287 287 287 287 286 285 284 284 283 283 286 285 285 286 288 288 287 287 287 288 291 290 292 292 291 291 292 292
293 294 291 291 284 283 282 285 283 284 282 281 281 281 280 279 280 281 284 282 281 281 283 283 284 285 285 285 286 286 287 286 285 285 289 287 284 284 285 287 288 287 287 288 289 289 289 291 292 292 292 291 292 291
293 291 285 284 277 278 277 285 280 281 276 278 279 277 278 279 281 284 280 281 282 285 285 285 286 286 285 286 286 285 286 285 284 284 285 285 286 286 286 288 289 287 287 289 290 289 290 293 292 292 292 291 290 290
292 285 279 278 278 275 280 276 281 280 279 276 275 274 277 279 282 279 277 279 282 284 284 284 285 284 284 284 283 284 285 285 285 285 286 286 285 286 288 288 289 290 291 290 289 289 291 290 291 291 291 290 290 290
279 277 277 272 279 276 275 275 276 276 274 276 274 273 276 280 276 276 276 278 280 281 283 284 284 284 282 282 283 284 288 288 286 285 288 289 288 288 288 289 290 291 292 289 288 288 290 290 290 290 291 290 290 290
273 275 276 275 276 275 275 273 274 275 276 273 276 278 280 278 273 273 277 279 281 282 284 283 283 284 284 286 286 287 288 290 289 287 289 289 289 287 287 286 286 289 292 290 288 288 289 289 288 289 289 290 292 291
270 271 277 281 280 279 277 278 279 277 275 273 276 276 275 268 272 277 281 284 284 287 288 288 288 286 286 287 289 289 289 289 288 288 290 290 290 289 289 287 288 289 289 289 289 289 288 288 288 289 289 290 291 291
278 279 275 277 278 279 274 276 275 275 277 279 278 274 272 274 275 283 286 287 288 288 288 289 289 289 288 288 288 287 288 288 289 290 290 290 289 290 289 288 289 291 289 290 290 290 289 288 289 289 289 289 290 291
278 280 278 270 277 278 277 277 277 279 281 280 277 277 278 282 285 286 287 287 287 286 286 286 287 287 287 287 287 286 286 286 286 284 283 284 285 286 287 287 288 289 289 289 290 291 290 290 290 290 291 290 291 290
278 281 277 276 272 274 278 280 280 282 283 283 282 282 282 283 285 285 284 284 285 285 285 285 284 283 282 282 283 284 286 286 285 283 282 281 283 286 287 287 287 288 289 289 289 289 291 291 291 290 289 290 289 289
281 280 278 278 276 279 281 283 284 284 283 282 283 281 281 283 283 283 283 283 283 284 284 282 282 282 281 281 282 282 283 286 286 284 285 284 286 287 287 288 289 289 289 288 288 288 288 288 289 287 287 288 288 289
280 279 278 275 278 282 283 282 282 282 281 281 281 281 283 282 281 282 281 281 282 281 282 281 280 280 282 282 283 286 286 285 283 283 284 285 286 288 288 289 289 289 288 287 287 288 288 288 288 287 288 287 288 288
280 280 280 279 278 279 280 280 279 279 280 280 280 281 281 280 279 281 281 282 280 279 280 280 281 281 282 281 282 283 285 283 284 286 287 288 288 289 288 288 287 287 287 287 287 288 288 288 288 288 289 288 288 287

GFSWCAN_sfc_thetae_174.txt.gz
Theta_e
304 304 303 302 303 304 304 304 304 304 305 305 305 304 307 304 304 298 295 298 293 286 287 291 292 285 285 284 280 282 280 280 275 268 269 273 273 275 274 275 275 272 263 268 269 267 269 287 284 278 283 290 290 290
301 302 302 303 302 303 302 303 303 302 302 303 303 304 303 302 303 299 293 298 299 290 288 294 294 293 291 290 285 283 281 280 279 273 273 276 275 274 274 270 275 270 274 270 273 274 285 284 284 287 289 288 291 290
300 300 301 301 301 302 302 302 302 301 301 301 301 302 302 302 302 301 295 296 294 287 289 288 288 292 293 293 293 281 281 285 283 282 275 271 268 273 267 271 271 276 281 278 278 280 281 283 285 289 289 289 292 292
300 300 300 300 300 300 300 300 300 300 301 300 300 300 299 300 300 298 292 296 293 289 282 283 293 289 292 292 292 291 288 288 285 278 270 268 270 275 270 274 274 276 278 276 276 279 281 284 286 287 288 289 290 290
298 298 299 299 300 300 300 300 299 299 299 299 299 299 300 299 299 294 290 295 296 289 281 282 289 291 291 291 290 290 289 284 280 276 272 270 277 276 274 275 272 278 277 275 274 280 281 281 286 288 287 287 288 288
297 298 298 298 298 298 299 299 299 299 299 299 300 299 299 299 298 290 286 291 296 295 285 281 289 288 289 290 289 288 288 284 281 278 274 277 280 277 268 270 277 280 281 281 279 283 284 284 285 286 286 288 289 288
297 297 298 298 298 299 298 299 299 299 299 299 299 299 299 299 291 287 284 293 296 294 284 282 282 288 290 289 288 286 286 283 282 279 278 278 278 279 273 271 278 281 282 283 284 282 282 284 284 288 290 292 292 289
297 297 297 297 298 298 298 299 298 299 299 299 299 299 298 298 295 288 291 298 294 286 284 281 280 284 289 283 282 286 282 284 283 281 279 277 279 280 273 277 280 283 283 283 284 285 286 285 286 288 289 291 290 288
296 296 296 296 297 297 298 298 298 298 298 298 298 297 291 288 286 286 297 298 294 289 281 281 278 277 288 285 286 286 287 280 285 278 279 278 275 271 278 279 281 282 282 283 284 283 282 285 287 287 286 287 288 289
297 297 297 297 297 297 297 298 298 298 298 297 291 287 282 288 296 297 291 285 285 285 285 281 282 276 284 284 282 282 284 280 276 279 282 276 274 281 282 283 284 284 285 284 281 281 281 282 284 286 287 288 289 290
297 297 296 297 297 297 297 297 297 297 295 288 284 284 290 296 291 287 280 278 272 275 280 282 281 279 286 281 281 283 279 279 273 277 276 274 274 279 283 284 285 286 286 285 285 284 284 284 285 286 287 288 288 289
296 296 296 296 296 296 297 296 296 293 287 288 289 290 288 280 281 273 269 273 272 271 277 280 281 283 286 287 282 282 278 278 272 279 271 272 276 282 282 283 284 285 285 285 286 286 287 286 287 287 286 287 288 289
296 296 296 296 296 296 296 296 297 296 294 289 286 282 279 280 273 265 263 271 272 277 278 279 280 283 283 285 282 279 275 274 280 276 273 276 280 281 282 282 284 285 284 285 285 286 288 287 287 288 288 289 289 289
296 296 296 296 296 296 296 296 296 294 288 282 279 273 272 273 272 268 270 273 278 277 278 282 281 281 283 281 280 276 277 275 268 270 273 276 278 280 281 281 284 285 287 287 287 287 287 287 286 287 288 289 289 289
295 296 295 295 296 296 296 295 295 291 285 280 273 267 269 274 271 275 275 275 279 281 283 282 282 281 277 278 278 273 269 267 271 273 275 277 279 280 282 283 284 284 284 285 285 285 285 285 285 286 287 288 288 289
295 295 292 295 295 295 294 292 290 290 284 278 273 271 276 275 273 277 279 272 280 283 283 283 276 273 271 273 269 272 271 271 274 275 278 280 280 282 283 284 284 283 282 282 283 284 285 286 286 287 288 288 288 289
295 288 294 295 294 294 293 289 287 281 278 272 273 279 278 277 277 277 281 279 283 281 274 271 267 268 272 266 268 275 274 275 277 279 280 281 282 284 285 283 282 282 281 281 282 284 285 287 287 287 286 288 289 291
289 290 295 295 293 291 289 287 283 278 275 276 278 278 278 278 279 280 281 283 283 279 276 272 273 267 267 266 271 274 276 278 279 279 280 281 282 282 283 282 282 281 281 282 284 285 285 285 286 286 288 288 289 291
290 289 295 295 291 286 281 280 282 271 274 279 280 279 279 279 280 282 282 283 284 282 278 269 268 269 273 276 276 277 278 279 279 280 281 282 282 281 282 282 282 281 281 282 284 285 286 286 287 287 287 288 289 292
296 295 295 295 292 283 274 272 278 272 274 279 281 279 278 278 279 281 281 282 280 277 272 267 272 277 276 277 278 279 279 280 280 278 279 281 282 281 282 282 282 283 283 283 284 289 286 286 287 288 289 290 290 291
292 292 294 292 285 283 277 277 274 276 278 279 279 279 277 279 279 279 279 281 277 272 274 276 273 276 280 281 282 282 282 281 281 280 281 281 282 282 282 282 282 281 281 282 283 285 288 286 287 289 289 290 290 291
290 293 287 289 278 277 279 282 277 279 278 278 278 278 277 276 277 279 280 279 277 279 278 278 279 280 280 281 282 283 284 285 283 283 286 285 282 281 280 282 282 282 283 284 285 285 286 287 287 288 288 288 290 291
291 286 281 274 272 269 275 279 273 277 269 270 276 273 272 275 277 280 277 279 279 281 281 281 281 282 281 282 282 282 282 281 280 281 281 281 281 281 281 282 283 282 282 284 286 286 287 289 289 288 288 289 289 289
288 273 269 269 267 273 269 269 273 272 275 270 268 268 272 273 278 275 275 276 279 279 279 280 280 279 279 279 279 280 281 282 281 281 281 280 279 281 282 283 284 285 285 286 287 287 287 287 289 287 287 288 288 288
274 271 269 269 271 267 267 268 269 271 265 271 265 265 271 276 270 272 274 276 276 276 277 278 278 279 278 278 280 281 282 282 282 282 284 283 283 283 284 285 285 286 287 286 285 286 285 285 286 286 287 288 287 287
270 270 269 269 269 271 272 267 269 272 272 267 271 274 275 273 269 270 275 276 277 279 281 280 279 278 278 279 279 280 284 286 285 283 284 285 285 283 283 283 282 284 287 286 286 287 286 285 286 287 286 287 289 288
267 267 275 279 278 277 273 275 275 273 271 269 270 270 268 268 268 275 277 279 280 282 283 283 283 282 281 283 285 285 285 285 284 285 286 285 286 286 285 284 284 285 286 286 285 285 285 286 286 286 286 287 287 287
275 277 274 276 276 276 271 269 270 272 274 275 274 270 268 270 273 277 277 281 282 283 283 284 285 284 283 284 284 283 283 284 284 285 285 285 285 286 286 286 286 289 287 286 287 288 287 287 286 286 286 286 287 288
276 276 275 268 273 275 274 275 274 276 277 276 275 273 275 278 280 281 281 286 287 285 281 281 282 282 282 283 283 282 282 281 280 279 280 281 282 283 284 284 285 285 285 287 290 290 289 288 288 288 288 288 289 289
273 275 271 271 267 269 275 276 276 277 277 277 278 278 279 278 279 280 280 280 281 282 284 284 281 280 279 279 280 280 281 282 281 280 278 278 280 283 284 284 285 286 288 288 288 288 289 289 289 288 288 287 287 288
274 274 273 273 269 274 275 277 279 279 277 276 275 277 278 279 279 279 278 278 279 279 281 281 280 279 279 278 279 279 282 283 282 282 283 283 283 283 284 286 287 288 287 286 286 286 287 287 287 287 286 286 287 287
275 274 274 270 272 276 278 278 278 277 277 277 278 276 278 279 279 280 278 278 278 278 281 279 278 278 279 280 280 283 285 282 281 282 282 284 285 286 287 287 287 287 286 286 286 287 287 286 286 286 286 285 286 287
275 277 276 275 272 275 279 277 277 276 278 278 278 279 280 280 278 280 280 280 279 277 278 278 278 279 280 281 281 282 283 282 283 287 287 287 288 288 287 287 287 287 286 286 286 286 286 286 286 286 285 286 287 287

GFSWCAN_sfc_thetae_180.txt.gz
Theta_e
300 300 301 302 303 303 303 303 303 303 303 303 303 302 303 303 302 294 293 298 291 285 288 290 291 288 289 287 279 281 281 281 278 274 274 275 274 275 273 274 274 271 265 262 264 261 266 281 281 276 280 283 285 287
300 300 300 300 301 301 302 302 302 302 302 302 302 302 302 302 302 299 289 295 298 290 288 292 292 293 292 292 287 285 283 282 282 277 276 278 275 275 274 270 274 271 272 269 270 271 278 283 282 285 284 283 286 287
298 299 300 300 300 301 301 301 301 301 301 300 301 301 301 301 301 298 292 296 295 288 288 288 287 292 295 295 294 283 284 285 283 283 278 274 269 274 270 272 270 272 276 274 275 276 278 281 283 284 284 285 286 287
297 297 298 298 299 299 300 300 300 300 300 300 300 300 300 300 299 297 290 291 291 289 281 282 292 289 294 296 293 292 289 287 284 280 272 273 271 274 270 272 272 273 276 274 274 276 278 281 282 283 285 285 285 287
297 298 297 297 298 299 299 299 300 300 300 300 300 300 300 299 299 294 289 289 292 286 278 281 286 290 291 293 292 292 289 285 283 277 275 274 275 275 272 274 271 275 274 273 272 277 277 278 282 284 283 284 285 286
297 297 297 298 298 298 299 299 299 299 299 299 300 300 299 300 298 288 278 289 294 294 284 279 285 286 287 293 291 290 289 285 282 281 277 278 278 276 268 269 276 277 278 279 277 279 280 280 283 283 283 284 286 288
297 297 297 297 297 297 298 298 298 299 299 299 299 299 299 299 289 284 280 286 295 293 283 277 282 286 288 289 288 287 287 285 283 280 279 277 277 276 270 270 277 278 280 280 280 279 278 281 281 283 284 287 290 289
298 297 297 297 297 296 297 297 297 298 298 298 298 298 298 298 294 290 289 296 295 287 284 276 273 282 289 285 282 287 284 283 283 280 278 278 278 275 269 276 278 279 280 280 280 281 281 281 281 283 284 285 287 287
298 298 298 297 298 297 298 297 297 297 297 297 298 297 289 286 285 285 296 297 292 287 279 275 275 272 288 285 286 286 287 280 284 279 278 279 275 271 277 278 279 280 280 280 280 281 280 280 281 282 281 284 285 286
298 298 298 298 297 297 297 297 297 297 297 297 291 285 275 281 297 295 291 285 285 285 284 277 280 277 285 283 282 282 284 280 277 279 281 277 273 279 281 281 282 282 283 281 278 278 278 278 279 280 284 285 286 287
297 298 298 298 297 297 297 297 297 296 294 285 277 278 284 292 285 282 280 278 268 268 276 281 280 277 286 280 280 283 279 279 273 276 277 275 273 279 283 283 283 284 283 282 282 282 282 281 282 282 282 284 285 287
298 297 297 297 297 297 297 297 297 289 284 285 285 287 287 281 278 275 270 275 269 271 275 278 281 283 285 287 282 282 278 278 272 280 274 272 275 281 283 283 282 282 282 282 283 283 283 282 282 283 283 283 285 286
297 297 297 297 297 297 297 297 296 295 293 290 285 281 278 272 271 270 260 265 269 277 277 279 280 283 284 285 282 280 275 275 280 273 271 275 279 281 281 281 281 282 281 281 281 282 283 283 283 283 283 284 285 286
296 296 296 296 296 296 296 296 296 294 289 282 277 270 271 261 272 268 270 271 278 278 279 279 280 278 283 281 280 276 279 278 273 271 272 277 279 280 281 280 279 279 282 282 282 282 283 283 283 285 285 286 286 286
296 296 296 295 296 296 296 296 295 291 285 279 279 270 269 275 273 275 272 270 278 278 280 281 279 276 278 278 279 277 272 269 272 272 275 278 278 279 280 279 278 279 282 283 283 284 284 284 284 284 285 285 285 286
296 296 291 295 296 296 295 293 290 291 285 280 277 272 276 274 273 270 274 272 279 281 282 281 278 274 274 276 273 273 271 270 274 277 280 279 278 279 280 280 281 282 282 282 283 283 283 283 283 283 284 285 285 286
295 286 294 295 296 295 295 289 287 283 280 278 273 279 278 278 277 274 278 277 282 279 277 272 273 273 276 273 273 276 274 277 279 278 278 278 279 280 280 280 280 280 280 280 280 281 282 284 284 284 283 285 286 286
288 290 295 295 293 292 290 288 283 280 275 274 274 279 279 280 279 280 281 282 282 279 277 271 273 269 272 270 273 277 277 278 277 278 279 279 279 280 282 281 281 281 280 280 279 280 281 282 283 283 284 285 285 285
290 291 295 294 292 287 281 282 283 276 275 280 281 280 281 281 281 282 284 284 282 283 280 277 274 274 275 276 276 276 277 277 278 279 279 279 280 280 280 279 279 279 279 279 279 280 281 283 284 284 285 285 284 285
296 296 296 294 293 284 280 279 280 278 275 279 280 279 279 279 280 282 282 284 283 282 277 275 274 276 277 277 278 278 279 279 279 278 278 278 278 279 279 279 279 279 279 280 280 284 282 282 284 285 285 285 285 286
292 292 295 292 286 285 281 275 273 278 279 277 281 279 279 281 282 282 282 282 280 275 275 277 274 276 279 279 279 280 280 279 279 279 278 278 280 279 279 280 280 280 280 279 279 280 284 282 283 285 286 287 289 289
291 293 288 288 282 280 279 281 280 281 278 277 280 279 278 277 278 280 283 281 278 279 278 278 279 279 278 278 279 279 280 280 280 280 284 283 280 280 280 280 280 280 280 281 281 281 282 284 285 286 286 287 289 288
291 286 276 273 271 268 271 279 276 278 272 272 278 275 273 274 277 280 276 278 279 280 280 279 279 279 279 279 279 279 280 280 278 278 279 279 279 280 280 280 281 281 281 281 282 282 283 287 287 287 286 287 287 286
285 275 272 272 268 269 269 269 274 273 275 271 271 270 273 274 277 274 274 276 278 278 278 278 279 277 277 277 276 278 279 279 278 278 279 279 279 279 280 280 281 282 282 283 284 284 285 285 288 286 285 285 285 285
272 269 268 268 268 269 270 270 272 272 267 271 267 268 272 276 271 272 274 276 277 277 277 277 276 276 276 275 276 278 280 279 278 278 281 281 281 281 283 283 283 283 285 284 283 284 284 285 285 287 287 285 284 285
266 267 266 267 268 271 273 271 271 272 272 267 270 272 275 271 269 269 274 276 276 277 280 279 277 276 276 276 277 278 280 281 281 282 282 283 283 282 282 282 281 283 284 284 284 284 284 283 283 283 283 284 287 286
265 265 272 276 275 275 273 275 275 272 270 267 268 268 267 266 266 273 276 277 278 280 281 282 281 279 279 280 281 282 282 282 282 283 283 283 283 283 283 282 282 283 284 284 284 283 283 283 283 283 284 285 286 286
274 274 272 275 275 276 270 268 268 270 272 273 273 268 268 269 271 275 276 279 281 282 282 282 282 281 281 281 281 281 281 281 282 282 282 282 282 283 283 284 285 288 288 286 285 284 283 283 284 285 285 285 285 287
274 276 275 267 273 274 273 274 273 275 276 275 273 271 273 277 278 278 283 285 285 283 281 281 280 280 279 280 280 280 280 279 278 278 278 278 277 282 283 282 282 283 284 285 288 288 287 288 288 287 287 286 287 288
271 276 271 270 269 271 275 276 275 276 276 277 277 277 277 277 280 279 280 282 282 280 282 284 284 279 278 278 278 279 279 279 279 278 277 276 276 279 280 281 283 284 285 285 286 286 288 287 287 287 286 287 287 287
274 274 272 272 270 273 275 276 277 277 275 273 274 276 277 277 279 278 277 277 277 278 278 279 279 279 279 278 277 278 278 282 283 281 280 280 280 281 282 283 284 285 286 286 285 285 285 285 285 285 286 285 286 286
273 272 271 267 268 273 279 274 274 274 274 274 274 274 277 277 275 278 277 276 277 277 280 279 278 278 278 279 279 279 283 282 280 280 280 281 283 284 286 286 286 286 286 286 286 286 286 285 285 285 284 284 285 284
272 273 273 271 274 275 278 277 276 276 276 276 276 276 277 277 276 278 278 278 278 277 277 277 277 277 277 278 279 279 282 280 281 286 287 288 289 288 288 288 288 287 287 287 286 286 285 285 285 285 285 284 284 284